Aérodrome :
LOGIN :

S'inscrire | Disclaimer

   EN    FR    IT 

 










Légende :    VFR   VFR Marginal   IFR   IFR Intensif   IFR Très Intensif
Visi : 
Plafond : 
>= 8 km
>= 3000ft
5 à 8 km
1000 à 3000 ft
1500m à 5 km
500 à 1000 ft
800 à 1500m
200 à 500 ft
< 800m
< 200 ft
Symboles :   Orages  Brouillard  Fortes neiges  Fortes précipitations  Vent > 20 kt
SIGMETs :   Divers  Orages  Givrage  Turbulence  Onde Orograph.  Cendres Volcan.







- Altitude de l'aérodrome : 468 ft
- Code IATA : GRO


LEGE - Girona Costa Brava

DERNIER METAR :
  • 251130Z 19009KT 160V260 9999 FEW030 29/11 Q1016

METARs EXPIRÉS :
  • 251100Z 23007KT 170V300 9999 FEW030 28/11 Q1016
  • 251030Z 21006KT 160V260 9999 FEW030 28/10 Q1016
  • 251000Z 15004KT CAVOK 27/10 Q1016
  • 250930Z 15003KT CAVOK 26/11 Q1016
  • 250900Z 25002KT CAVOK 25/11 Q1017

TAF TAF LEGE
Valide du 25 à 12h jusqu'au 26 à 12h UTC


251100Z 2512/2612 18010KT 9999 SCT060 TX31/2513Z TN17/2606Z
BECMG 2518/2520 VRB03KT
Pas de NOTAMs connus pour ce terrain.



MET'MAP, la Météo Aéronautique d'un coup d'oeil ! - Copyright ORBIFLY Décembre 2007 - Disclaimer

ORBIFLY MET'MAP TEAM :

Programmation & Développement : Alexandra Zaïnal
Conception & Développement : Baudouin d'Aumeries
Co-Programmation & Développement : Marc-Olivier Méhu
Soutien technique & logistique : Manuel Goepfert

Contact : metmap@orbifly.com




SOURCES & CREDITS :

   NOAA